East Taunton, MA

9:21 AM EST on February 25, 2017 (GMT -0500)
Taunton Municipal

Weather History for KTAN - June, 2013

Change the Weather History Date:

Sunday, June 16, 2013

  Actual Average Record
Temperature  
Mean Temperature 63 °F -  
Max Temperature 78 °F 78 °F 96 °F (1988)
Min Temperature 48 °F 55 °F 38 °F (1961)
Degree Days  
Heating Degree Days 2    
Growing Degree Days 13 (Base 50)    
Moisture  
Dew Point 53 °F    
Average Humidity 73    
Maximum Humidity 97    
Minimum Humidity 37    
Precipitation  
Precipitation 0.00 in - - ()
Sea Level Pressure  
Sea Level Pressure 29.88 in    
Wind  
Wind Speed 4 mph (SW)    
Max Wind Speed 13 mph    
Max Gust Speed 20 mph    
Visibility 8 miles    
Events      
Averages and records for this station are not official NWS values.
T = Trace of Precipitation, MM = Missing Value Source: NWS Daily Summary

Daily Weather History Graph

Daily Weather History Graph

Search for Another Location

Airport or City:

Trip Planner

Search our weather history database for the weather conditions in past years. The results will help you decide how hot, cold, wet, or windy it might be!

Date:

Astronomy

Jun. 16, 2013 Rise Set
Actual Time 5:08 AM EDT 8:21 PM EDT
Civil Twilight 4:34 AM EDT 8:55 PM EDT
Nautical Twilight 3:49 AM EDT 9:39 PM EDT
Astronomical Twilight 2:56 AM EDT 10:33 PM EDT
Moon 12:47 PM EDT (6/16) 12:18 AM EDT (6/16)
Length of Visible Light 16h 21m
Length of Day
15h 13m
Waxing Crescent, 49% of the Moon is Illuminated
Jun 16
Waxing Crescent
Jun 16
First Quarter
Jun 23
Full
Jun 30
Last Quarter
Jul 8
New

Hourly Weather History & Observations

Time (EDT) Temp. Dew Point Humidity Pressure Visibility Wind Dir Wind Speed Gust Speed Precip Events Conditions
12:52 AM 62.1 °F 53.1 °F 72% 29.95 in 10.0 mi SW 5.8 mph - N/A   Clear
1:52 AM 55.9 °F 52.0 °F 87% 29.94 in 10.0 mi Calm Calm - N/A   Clear
2:52 AM 53.1 °F 51.1 °F 93% 29.94 in 8.0 mi Calm Calm - N/A   Clear
3:52 AM 51.1 °F 48.9 °F 92% 29.94 in 7.0 mi Calm Calm - N/A   Clear
4:43 AM 50.0 °F 48.0 °F 93% 29.94 in 2.5 mi Calm Calm - N/A   Clear
4:52 AM 50.0 °F 48.9 °F 96% 29.94 in 5.0 mi Calm Calm - N/A   Clear
4:59 AM 50.0 °F 48.0 °F 93% 29.94 in 1.8 mi Calm Calm - N/A   Clear
5:03 AM 50.0 °F 48.0 °F 93% 29.94 in 0.8 mi Calm Calm - N/A   Clear
5:13 AM 48.9 °F 48.0 °F 97% 29.94 in 1.5 mi Calm Calm - N/A   Clear
5:35 AM 50.0 °F 48.0 °F 93% 29.94 in 0.8 mi Calm Calm - N/A   Clear
5:44 AM 50.0 °F 48.9 °F 96% 29.94 in 1.5 mi Calm Calm - N/A   Clear
5:52 AM 51.1 °F 50.0 °F 96% 29.94 in 3.0 mi Calm Calm - N/A   Clear
6:52 AM 63.0 °F 52.0 °F 67% 29.95 in 10.0 mi West 5.8 mph - N/A   Clear
7:52 AM 68.0 °F 52.0 °F 56% 29.95 in 10.0 mi WSW 6.9 mph - N/A   Clear
8:52 AM 71.1 °F 51.1 °F 49% 29.94 in 10.0 mi WSW 5.8 mph - N/A   Clear
9:52 AM 73.9 °F 52.0 °F 46% 29.94 in 10.0 mi WSW 6.9 mph - N/A   Clear
10:52 AM 77.0 °F 50.0 °F 39% 29.92 in 10.0 mi WSW 8.1 mph - N/A   Clear
11:52 AM 78.1 °F 52.0 °F 40% 29.89 in 10.0 mi SSW 10.4 mph 17.3 mph N/A   Clear
12:52 PM 75.0 °F 51.1 °F 43% 29.88 in 10.0 mi SSW 10.4 mph 18.4 mph N/A   Scattered Clouds
1:52 PM 75.9 °F 48.0 °F 37% 29.86 in 10.0 mi SW 12.7 mph 19.6 mph N/A   Mostly Cloudy
2:52 PM 75.9 °F 52.0 °F 43% 29.83 in 10.0 mi South 9.2 mph - N/A   Mostly Cloudy
3:52 PM 73.9 °F 54.0 °F 50% 29.81 in 10.0 mi SW 4.6 mph - N/A   Overcast
4:52 PM 72.0 °F 54.0 °F 53% 29.79 in 10.0 mi South 11.5 mph 18.4 mph N/A   Mostly Cloudy
5:52 PM 71.1 °F 60.1 °F 68% 29.76 in 10.0 mi SSW 9.2 mph 19.6 mph N/A   Mostly Cloudy
6:52 PM 68.0 °F 61.0 °F 78% 29.76 in 10.0 mi SSW 9.2 mph 19.6 mph N/A   Scattered Clouds
7:52 PM 66.9 °F 61.0 °F 81% 29.75 in 8.0 mi SSW 6.9 mph - N/A   Partly Cloudy
8:52 PM 66.9 °F 62.1 °F 84% 29.75 in 9.0 mi Variable 4.6 mph - N/A   Clear
9:52 PM 66.0 °F 62.1 °F 87% 29.77 in 8.0 mi SSW 3.5 mph - N/A   Clear
10:52 PM 68.0 °F 62.1 °F 81% 29.77 in 9.0 mi SW 5.8 mph - N/A   Overcast
11:52 PM 68.0 °F 62.1 °F 81% 29.78 in 9.0 mi WSW 4.6 mph - N/A   Clear